Location: *
(14.5833°N, 121.0000°E)
Time: 16:34:02
(UTC+00:00)

Daily predictions for brighter satellites

Satellite Brightness Start Highest point End
(mag) Time Altitude Azimuth Time Altitude Azimuth Time Altitude Azimuth
Ariane H10 4.5 12:03:40 10° WSW 12:16:49 40° SSW 12:16:49 40° SSW
Ariane H10+ 4.0 12:16:10 10° WSW 12:19:14 20° SW 12:19:14 20° SW
ATLAS 2A CENTAUR R/B 4.0 19:41:56 26° ESE 19:41:56 26° ESE 19:46:14 10° ESE
CZ-3A R/B 4.2 19:39:50 54° N 19:39:50 54° N 19:49:42 10° ENE
ADEOS Rocket 4.2 19:33:45 10° SSE 19:39:01 48° SSE 19:39:01 48° SSE
Cosmos 2263 Rocket 4.2 19:55:43 20° SSE 19:55:43 20° SSE 19:57:16 10° SSE
BREEZE-M DEB (TANK) 4.4 19:54:47 77° NNW 19:54:47 77° NNW 20:18:37 10° NE
Centaur AC-64 4.1 19:58:55 54° NE 19:58:55 54° NE 20:13:52 10° E
COSMOS 2455 3.5 20:00:36 50° E 20:00:36 50° E 20:06:00 10° SE
USA 267 3.7 19:58:51 10° SE 20:05:10 54° NE 20:05:59 51° NNE
Gbstr 26 Del rocket 4.5 20:05:21 50° S 20:06:51 62° SE 20:14:19 10° NE
Atlas Centaur 2 3.3 20:19:01 47° N 20:19:01 47° N 20:26:30 10° NE
Milstar 3 4.5 20:14:00 49° WNW 20:19:31 79° SSW 20:45:24 10° ESE
Cosmos 921 Rocket 3.7 20:25:11 10° S 20:32:32 17° NNE 20:33:38 10° NNE
ADEOS 3.5 20:30:17 72° SSW 20:30:17 72° SSW 20:34:56 10° SSW
Tsikada Rocket 3.8 20:35:31 28° N 20:38:58 88° W 20:45:10 10° S
SJ-12 4.0 20:41:10 44° NNE 20:42:24 74° E 20:46:30 10° S
SEDSat Delta rocket 4.0 20:41:23 35° SW 20:44:27 81° SSE 20:51:11 10° ENE
Cosmos 1626 2.8 20:45:33 46° SSE 20:45:33 46° SSE 20:48:12 10° S
Cosmos 1844 Rocket 3.6 20:41:40 12° N 20:46:31 45° ENE 20:51:47 10° SE
SJ 16-02 3.8 20:43:58 10° NNE 20:47:11 20° ENE 20:50:23 10° ESE
Cosmos 1816 Rocket 4.4 20:45:44 45° NW 20:47:19 58° W 20:53:22 10° S
Cosmos 2237 Rocket 2.7 20:41:51 10° S 20:47:22 59° ESE 20:52:54 10° NNE
Skynet4D Del rocket 4.1 20:46:25 47° WNW 20:48:40 88° NNE 20:56:18 10° ESE
Cosmos 1758 3.4 20:45:28 10° S 20:49:25 73° E 20:53:25 10° N
Cosmos 1763 Rocket 3.5 20:49:54 10° SSW 20:54:50 53° WNW 20:59:50 10° N
Cosmos 1726 2.0 20:51:12 10° S 20:54:52 83° E 20:56:22 34° N
SL-14 R/B 3.3 20:54:01 39° N 20:55:28 83° E 20:59:30 10° S
Meteor PRIRODA 4.0 20:55:03 10° NNE 20:58:38 62° E 21:02:12 10° S
Cosmos 841 Rocket 3.8 20:54:32 10° S 20:59:38 67° ESE 21:04:43 10° NNE
Aurora 2 Rocket 3.2 20:58:57 42° NW 21:00:02 49° NNW 21:06:28 10° ENE
Lacrosse 4 Rocket 3.9 20:57:25 10° SSE 21:00:38 23° ESE 21:03:54 10° NE
H-2A R/B 2.0 20:56:55 10° S 21:01:12 63° WSW 21:02:40 39° NW
ASTRO E2 3.1 21:03:55 41° NNW 21:04:52 53° NNE 21:08:44 10° ESE
Cosmos 1570 Rocket 4.5 21:00:51 10° S 21:05:58 61° ESE 21:11:06 10° NNE
FALCON 9 R/B 3.3 21:06:25 21° NNW 21:07:16 22° NNW 21:10:13 10° NE
CZ-4B R/B 2.5 21:05:05 10° N 21:08:45 75° WNW 21:12:34 10° SSW
Ariane H10 4.2 21:08:21 20° WSW 21:12:00 58° S 21:40:09 10° E
Cosmos 1455 Rocket 2.9 21:08:35 10° SSW 21:12:57 67° W 21:17:17 10° N
GPS 2-17 Rocket1 3.4 21:12:52 34° WNW 21:14:20 48° N 21:18:47 10° ENE
CZ-2C R/B 3.3 21:15:51 13° NNW 21:15:51 13° NNW 21:17:16 10° N
SKYMED 2 4.5 21:11:12 10° SSE 21:15:23 49° ENE 21:19:34 10° N
Cosmos 1818 4.2 21:14:57 28° WNW 21:16:47 35° WSW 21:21:40 10° S
Meteor 2-5 Rocket 3.8 21:11:52 10° NNW 21:17:23 54° W 21:23:00 10° S
GPS 2-18 Rocket1 4.2 21:14:55 16° SW 21:17:36 40° SSE 21:21:08 10° E
Cosmos 1980 3.7 21:14:16 10° SSW 21:19:47 56° WNW 21:25:20 10° N
Centaur D-1AR AC-37 4.2 21:18:39 29° WNW 21:20:27 88° NNE 21:26:18 10° ESE
Cosmos 2208 Rocket 4.3 21:18:31 10° S 21:23:56 77° ESE 21:29:22 10° NNE
ATLAS 3B CENTAUR R/B 4.4 21:16:52 21° WNW 21:25:06 88° SSW 21:46:42 10° ESE
Fermi 4.3 21:23:45 23° NW 21:25:59 49° NNE 21:29:59 10° E
Aureole 2 Rocket 2.5 21:28:56 29° WNW 21:29:46 36° WSW 21:32:25 10° S
Cosmos 1400 Rocket 3.9 21:26:15 10° S 21:30:05 48° E 21:33:59 10° NNE
CZ-4B R/B 1.2 21:28:03 10° S 21:31:20 70° W 21:34:40 10° NNW
NOSS 3-2 (A) 3.2 21:28:44 10° SSW 21:34:03 84° ESE 21:39:39 10° NNE
Cosmos 1814 Rocket 3.9 21:29:05 10° SSW 21:34:14 71° WNW 21:39:21 10° N
Cosmos 1464 Rocket 4.2 21:31:33 10° SSW 21:37:19 44° W 21:43:06 10° NNW
SL-4 R/B 2.8 21:36:12 18° W 21:37:46 24° NW 21:40:54 10° N
H-2A R/B 3.3 21:38:49 10° NNW 21:42:11 33° WNW 21:45:36 10° SW
Okean O Rocket 3.8 21:38:30 10° NE 21:42:17 29° E 21:46:03 10° SSE
SL-19 R/B 4.2 21:39:09 10° NNE 21:42:37 69° ESE 21:45:41 10° S
NOSS 3-2 (C) 4.3 21:37:37 10° S 21:42:42 47° ESE 21:47:59 10° NE
ATLAS CENTAUR R/B 1.0 21:39:50 10° SSW 21:43:44 78° WNW 21:47:28 10° NNE
CZ-3A R/B 3.5 21:33:27 15° WNW 21:44:02 62° N 21:50:44 10° E
COSMOS 2455 4.5 21:43:49 12° W 21:45:40 13° WSW 21:48:24 10° SW
Meteor 1-16 Rocket 4.3 21:40:39 10° SSW 21:46:20 70° W 21:52:12 10° N
USA 267 4.4 21:42:58 10° S 21:48:03 24° SW 21:53:09 10° WNW
CZ-4B DEB 4.2 21:44:04 10° N 21:49:37 84° WNW 21:55:09 10° SSW
H-2A R/B 3.1 21:45:41 10° NNE 21:50:09 66° ESE 21:54:35 10° S
Delta 198 3.5 21:49:26 11° WNW 21:52:47 50° NNE 21:56:16 10° E
NOAA 6 4.0 21:48:13 10° N 21:53:24 76° WNW 21:58:34 10° SSW
Envisat 3.2 21:49:16 10° N 21:54:08 49° WNW 21:59:01 10° SSW
Cosmos 1689 Rocket 2.4 21:51:50 10° SSE 21:54:43 66° E 21:57:36 10° N
PSLV R/B 4.1 21:52:00 10° N 21:55:51 47° WNW 21:59:46 10° SSW
Cosmos 1953 3.2 21:53:09 10° SW 21:56:36 28° W 22:00:02 10° NNW
PSLV R/B 3.9 21:54:18 10° SSE 21:58:21 89° WSW 22:02:25 10° NNW
Cosmos 1300 4.5 21:56:31 10° SSE 22:00:00 36° E 22:03:31 10° NNE
USA 307 3.8 21:57:24 10° WSW 22:01:04 28° NW 22:04:44 10° N
COSMO-SKYMED 1 3.3 21:59:30 10° SSW 22:03:24 33° W 22:07:19 10° NW
Cosmos 1892 Rocket 4.2 22:01:27 10° NNW 22:05:25 34° W 22:09:25 10° SSW
Cosmos 1844 4.5 22:00:27 10° NW 22:05:34 33° WSW 22:10:39 10° SSW
CZ-3C R/B 1.0 22:03:19 10° WNW 22:06:05 27° NNW 22:07:51 10° NE
Atlas Centaur 2 4.1 22:02:37 10° WNW 22:09:25 28° N 22:16:30 10° NE
Atlas 2A Centaur Rocket 4.3 22:20:39 10° WNW 22:50:50 75° SSW 22:55:51 10° SE
VEP-3 4.3 22:49:31 10° WNW 23:22:03 79° SSW 23:28:29 10° ESE
